Home > Weather > Savannah > Past weeks

Flag for USA Past Weather in Savannah, Georgia, USA — Yesterday and Last 2 Weeks

Now
76 °F

Clear.


Feels Like: 76 °F
Forecast: 78 / 89 °F
Wind: 2 mph from North

Location: Hunter U. S. Army Airfield

Current Time: Aug 28, 2016 at 6:42:29 AM

Latest Report: Aug 28, 2016 at 5:58 AM


Visibility: 10 mi

Pressure: 30.04 "Hg

Humidity: 100%

Dew Point: 76 °F

Location of SavannahLocation

Past Weather in Savannah — Graph

°F

Savannah Temperature Yesterday

Maximum temperature yesterday: 89 °F (at 1:58 PM)
Minimum temperature yesterday: 71 °F (at 1:58 AM)
Average temperature yesterday: 80 °F

High & Low Weather Summary for the Past Weeks

 TemperatureHumidityPressure
High95 °F (Aug 20, 2:58 PM)100% (Aug 13, 4:58 AM)30.23 "Hg (Aug 13, 4:58 AM)
Low71 °F (Aug 27, 1:58 AM)52% (Aug 14, 4:58 PM)29.85 "Hg (Aug 20, 3:58 PM)
Average83 °F85%30.07 "Hg
* Reported Aug 13 4:58 AM — Aug 28 4:58 AM, Savannah, Weather by CustomWeather, © 2016

Note: Actual official high and low records may vary slightly from our data, if they occured in-between our weather recording intervals... More about our weather records

Advertising

Savannah Weather History for the Previous 24 Hours

Scroll right to see more
 ConditionsComfort  
Time TempWeatherWind HumidityBarometerVisibility
4:58 AM
Sun, Aug 28
77 °FClear.5 mph100%30.04 "Hg10 mi
3:58 AM77 °FClear.5 mph100%30.04 "Hg10 mi
2:58 AM78 °FClear.5 mph99%30.04 "Hg10 mi
1:58 AM79 °FPassing clouds.2 mph98%30.04 "Hg10 mi
12:58 AM79 °FClear.6 mph99%30.05 "Hg10 mi
11:58 PM
Sat, Aug 27
79 °FClear.5 mph98%30.06 "Hg10 mi
10:58 PM80 °FClear.2 mph97%30.07 "Hg10 mi
9:58 PM80 °FClear.5 mph95%30.06 "Hg10 mi
8:58 PM80 °FClear.5 mph90%30.04 "Hg10 mi
7:58 PM81 °FPartly sunny.8 mph90%30.02 "Hg10 mi
6:58 PM82 °FPartly sunny.6 mph71%30.01 "Hg10 mi
5:58 PM87 °FPassing clouds.10 mph76%30.01 "Hg10 mi
4:58 PM88 °FSunny.14 mph74%30.02 "Hg10 mi
3:58 PM88 °FScattered clouds.15 mph72%30.03 "Hg10 mi
2:58 PM88 °FPassing clouds.13 mph71%30.04 "Hg10 mi
1:58 PM89 °FPassing clouds.13 mph69%30.06 "Hg10 mi
12:58 PM88 °FPassing clouds.15 mph67%30.06 "Hg10 mi
11:58 AM87 °FPassing clouds.13 mph68%30.06 "Hg10 mi
10:58 AM87 °FScattered clouds.16 mph68%30.06 "Hg10 mi
9:58 AM83 °FPassing clouds.12 mph81%30.06 "Hg10 mi
8:58 AM80 °FSunny.6 mph89%30.06 "Hg10 mi
7:58 AM76 °FSunny.3 mph98%30.05 "Hg10 mi
6:58 AM73 °FClear.5 mph100%30.04 "Hg10 mi
Weather by CustomWeather, © 2016

See weather overviewHow to use our weather pages